Location: Buena Vista
(37.7110°N, 119.7938°W)
Time: 07:03:45
(UTC+00:00)

Hubble Space Telescope - Pass Details

Date: 18 August 2024
Orbit: 505 x 509 km, 28.5° (Epoch: 19 September)

Event Time Altitude Azimuth Distance (km) Brightness Sun altitude
Exits shadow 12:34:10 11° 230° (SW) 1,643 2.6 -8.9°
Maximum altitude 12:36:36 18° 190° (S) 1,299 2.4 -8.5°
Drops below altitude 10° 12:39:18 10° 147° (SSE) 1,711 3.5 -8.0°
Sets 12:42:05 0° 127° (SE) 2,596 4.7 -7.5°
